Temperature
20 19 19 19 18 18 18 18 17 17 17 17 16 16 16 16 16 16 16 16 15 15 15 15 15 15 15 14 14 14 14 14 14 15 15 15 14 14 14 14 14 14 14
20 19 19 18 18 18 18 18 17 17 17 17 16 16 16 16 16 16 16 16 15 15 15 15 15 15 14 14 14 14 14 14 14 14 14 14 14 14 14 14 14 14 14
20 20 19 18 18 18 18 18 17 17 17 17 16 16 16 16 16 16 15 15 15 15 15 15 15 14 14 14 14 14 14 14 14 14 14 14 14 14 14 14 14 14 13
20 20 19 18 18 18 18 18 17 17 17 17 16 16 16 16 16 15 15 15 15 15 15 15 15 14 14 14 14 14 14 14 14 14 14 14 14 14 13 13 13 13 13
20 20 19 18 18 18 18 17 17 17 17 16 16 16 16 16 16 15 15 15 15 15 15 15 14 14 14 14 14 14 14 14 14 14 14 14 14 14 14 13 13 13 13
20 20 19 18 18 18 17 17 17 17 17 16 16 16 16 16 15 15 15 15 15 15 15 15 14 14 14 14 14 14 14 14 13 13 14 14 14 14 14 14 13 13 13
20 20 19 18 18 17 17 17 17 17 16 16 16 16 15 15 15 15 15 15 15 15 15 14 14 14 14 14 14 14 14 13 13 13 13 13 13 14 14 13 13 13 13
20 20 19 18 18 17 17 16 16 16 16 16 16 16 15 15 15 15 15 15 15 14 14 14 14 14 14 14 14 14 13 13 13 13 13 13 13 13 13 13 13 13 13
20 19 19 18 18 17 17 16 16 16 16 16 16 16 15 15 15 15 15 14 14 14 14 14 14 14 14 14 14 14 13 13 13 13 13 13 13 13 13 13 13 13 13
20 19 19 18 18 17 16 16 16 16 15 15 15 15 15 15 15 14 14 14 14 14 14 14 14 14 14 14 13 13 13 13 13 13 13 13 13 13 13 13 13 13 13
20 19 19 18 17 17 16 16 16 16 15 15 15 15 15 15 14 14 14 14 14 14 14 14 13 13 13 13 13 13 13 13 13 13 13 13 13 12 12 12 12 12 12
20 19 19 18 17 17 16 16 16 16 15 15 15 15 15 14 14 14 14 14 14 13 13 13 13 13 13 13 13 13 13 13 13 13 13 12 12 12 12 12 12 12 12
19 19 18 18 17 17 16 16 16 15 15 15 15 15 14 14 14 14 13 13 13 13 13 13 13 13 13 13 13 13 13 12 12 12 12 12 12 12 12 12 12 12 12
19 18 18 18 17 17 16 16 16 15 15 15 15 14 14 14 14 13 13 13 13 13 13 13 12 12 12 12 12 12 12 12 12 12 12 12 12 12 12 12 11 11 11
18 18 17 17 17 16 16 16 15 15 15 15 14 14 14 14 13 13 13 13 13 12 12 12 12 12 12 12 12 12 12 12 12 12 12 12 12 11 11 11 11 11 11
18 17 17 16 16 16 16 15 15 15 15 14 14 14 14 13 13 13 13 12 12 12 12 12 12 12 12 12 12 12 12 12 12 12 11 11 11 11 11 11 11 11 11
17 17 16 16 16 16 16 15 15 15 14 14 14 14 13 13 13 13 12 12 12 12 12 12 12 12 11 11 11 11 11 11 11 11 11 11 11 11 11 11 10 10 10
17 16 16 15 15 15 15 15 15 14 14 14 14 13 13 13 12 12 12 12 12 12 11 11 11 11 11 11 11 11 11 11 11 10 10 10 10 10 10 10 10 10 10
16 16 15 15 15 15 15 14 14 14 14 13 13 13 13 12 12 12 12 12 11 11 11 11 11 11 11 11 11 11 10 10 10 10 10 10 10 10 10 10 10 10 10
15 15 15 15 14 14 14 14 14 14 13 13 13 13 12 12 12 12 11 11 11 11 11 11 11 11 11 11 10 10 10 10 10 10 10 10 10 10 10 10 10 10 10
15 14 14 14 14 14 13 13 13 13 13 13 12 12 12 12 11 11 11 11 11 11 10 10 10 10 10 10 10 10 10 10 10 10 9 9 9 9 9 9 9 9 9
14 14 13 13 13 13 13 13 13 12 12 12 12 12 11 11 11 11 10 10 10 10 10 10 10 10 10 10 9 9 9 9 9 9 9 9 9 9 9 9 9 9 9
13 13 13 13 12 12 12 12 12 12 12 11 11 11 11 10 10 10 10 10 10 10 9 9 9 9 9 9 9 9 9 9 9 9 8 8 8 8 8 8 8 8 8
13 12 12 12 12 12 12 11 11 11 11 11 10 10 10 10 9 9 9 9 9 9 9 9 8 8 8 8 9 9 9 8 8 8 8 8 8 8 8 8 8 8 8
12 12 12 11 11 11 11 11 11 10 10 10 10 9 9 9 9 9 9 9 9 8 8 8 8 8 8 8 8 8 8 8 8 8 7 7 7 7 7 7 7 7 7
11 11 11 11 11 11 11 11 10 10 10 9 9 9 9 8 8 8 8 8 8 8 8 8 8 8 8 8 8 7 7 7 7 7 7 7 7 7 7 7 7 7 7
Wind_Speed
8 7 6 5 5 4 4 5 5 4 3 2 2 2 1 1 2 2 3 2 2 4 4 2 3 2 2 1 2 2 2 1 1 1 1 1 2 2 2 2 3 4 5
8 8 6 5 4 5 4 5 4 4 3 3 2 2 2 1 2 1 2 2 2 3 3 2 2 2 1 1 1 1 1 1 0 0 0 0 2 2 1 2 2 2 3
8 8 7 6 5 4 4 4 4 4 4 4 2 2 2 1 1 2 1 1 2 2 2 2 2 2 1 1 1 1 1 0 1 1 0 1 1 0 1 1 2 2 2
7 7 7 6 5 4 4 4 4 4 4 4 3 3 2 2 2 2 2 2 2 2 1 2 2 2 2 2 2 2 1 1 1 2 1 0 1 2 0 1 1 1 2
8 8 8 7 6 5 3 3 4 3 3 3 3 2 1 1 1 2 3 2 2 2 2 2 2 2 2 2 2 1 1 1 1 1 1 1 1 0 2 1 1 0 1
8 7 8 7 6 6 4 3 3 3 3 3 3 2 1 1 2 1 1 1 1 1 1 1 1 1 1 2 2 2 2 1 1 1 1 1 0 1 1 1 2 2 2
9 8 8 7 6 6 5 4 3 3 3 3 3 3 2 2 2 2 2 2 1 1 2 1 2 2 2 2 1 1 2 2 2 2 1 1 1 1 1 1 1 1 1
8 8 8 7 7 7 6 6 5 4 3 3 3 3 3 2 1 1 1 2 2 2 2 2 2 1 1 2 2 2 2 2 3 3 2 1 1 1 0 1 1 1 1
7 7 7 7 7 7 7 6 5 4 4 3 3 3 3 3 2 1 1 1 2 2 3 3 3 2 1 2 2 2 2 2 2 2 2 2 1 1 1 1 2 2 1
6 7 7 7 6 6 6 6 5 5 4 4 3 2 3 3 2 2 1 1 1 1 2 2 2 2 2 2 1 2 2 2 2 1 2 2 1 1 1 1 1 1 2
6 6 7 7 6 6 6 6 5 5 4 4 4 3 3 2 2 2 1 1 1 1 2 2 2 2 2 3 2 2 3 3 3 2 2 3 2 1 1 1 1 1 1
3 5 7 7 6 6 6 6 5 5 4 4 3 3 3 2 2 2 2 2 2 1 1 1 1 2 2 2 2 2 2 2 3 3 3 3 2 1 1 0 1 1 1
2 3 5 6 7 6 6 6 6 5 5 5 4 4 4 4 4 3 2 2 1 1 1 1 1 2 2 2 2 3 3 3 3 2 3 3 3 2 2 2 1 1 1
2 2 2 3 5 6 5 5 6 5 5 5 5 4 4 3 3 2 2 2 1 1 1 1 1 1 1 1 1 2 3 3 3 2 2 2 3 3 3 3 3 2 1
2 2 2 1 2 4 4 4 4 5 5 5 4 4 4 3 3 2 2 2 1 1 1 1 1 1 0 1 1 2 3 3 3 2 2 1 3 3 3 2 2 2 2
1 1 1 1 1 3 4 4 4 4 5 5 5 4 3 2 3 3 2 2 2 2 1 1 1 1 1 0 1 2 3 3 3 3 3 2 3 3 3 3 3 3 3
1 1 0 0 1 1 2 3 3 3 4 4 4 4 3 3 3 3 2 2 3 2 2 2 2 2 2 2 2 3 3 3 3 3 3 2 3 4 3 3 4 4 5
2 1 1 1 1 1 0 1 2 2 2 3 3 3 3 3 3 3 3 3 3 2 3 3 3 2 2 2 3 4 4 4 3 3 3 2 1 2 2 3 4 5 5
2 2 1 1 2 1 1 0 1 2 2 2 2 3 3 3 3 3 4 3 2 2 3 3 3 3 3 3 3 3 3 4 4 4 2 2 2 2 2 2 3 4 5
3 3 2 1 1 1 1 1 1 1 2 1 2 3 3 3 3 4 3 2 3 3 3 3 3 3 3 3 3 4 3 3 4 3 2 3 2 2 2 2 3 5 5
3 3 2 2 2 2 1 1 1 2 1 1 1 1 2 3 3 3 2 2 3 3 3 3 3 3 3 3 4 5 3 3 3 3 3 3 3 4 4 4 4 5 4
3 3 2 3 3 2 2 2 2 2 1 0 1 1 2 2 2 2 2 2 2 3 3 3 2 2 2 2 3 4 4 3 3 3 3 3 4 4 5 5 5 5 3
3 3 3 3 3 3 2 3 3 1 0 1 1 2 2 2 2 2 2 2 2 2 2 2 2 2 1 1 1 3 4 4 3 4 5 5 6 5 4 6 6 4 3
2 2 2 2 2 2 2 2 3 2 1 1 2 2 1 1 1 1 1 2 2 2 2 2 2 2 1 0 1 1 2 4 4 5 6 7 6 5 5 4 4 4 4
2 2 2 1 2 2 2 2 2 1 1 2 2 2 1 1 1 1 2 2 2 2 3 3 2 2 3 3 2 1 2 2 4 4 3 2 2 2 3 3 3 3 3
3 3 3 2 2 2 3 3 3 2 2 2 2 1 1 1 1 1 2 3 3 3 3 3 3 3 4 4 4 4 4 5 5 2 2 3 3 3 3 3 3 2 3
Wind_Direction
165 159 159 157 155 155 145 134 136 149 139 122 118 124 118 106 87 92 90 75 70 91 93 80 77 76 78 67 65 61 50 65 89 71 50 21 62 78 85 68 63 65 83
162 160 164 159 169 155 148 142 151 153 144 137 144 142 123 130 122 92 102 112 90 92 111 119 109 106 107 79 62 70 38 334 358 112 158 58 12 2 90 99 99 86 80
170 164 166 166 167 162 160 162 164 153 150 149 147 127 113 116 144 157 133 118 119 107 105 120 128 142 162 174 168 163 127 281 312 356 84 123 173 283 341 113 108 98 85
168 162 162 164 163 167 162 160 157 151 152 149 146 150 159 183 186 156 152 160 142 125 138 146 160 178 176 179 205 169 174 177 269 317 339 20 142 141 278 332 32 106 109
171 165 165 168 162 157 154 159 151 140 137 140 148 164 170 173 142 133 154 170 162 157 178 184 204 195 187 187 188 177 199 193 193 234 294 320 339 124 154 219 230 349 140
168 164 161 162 160 153 153 157 151 141 138 137 133 153 164 133 129 141 160 172 157 182 198 186 206 202 196 205 197 193 200 207 197 239 236 214 194 242 198 203 201 194 207
170 168 164 165 160 154 155 164 158 153 152 154 160 167 162 170 184 185 188 183 175 195 216 195 215 204 190 195 182 217 213 209 207 224 240 250 251 207 194 168 202 204 202
172 167 164 165 161 164 167 171 167 165 156 163 179 175 162 172 180 196 193 199 195 195 196 202 220 190 177 204 182 222 228 225 219 218 217 233 254 256 217 171 160 202 254
166 164 167 167 166 169 169 172 169 170 172 180 191 175 175 171 179 178 211 216 212 200 190 188 194 177 170 212 195 221 228 233 232 216 220 219 235 240 272 239 177 169 209
164 167 171 166 166 168 168 172 178 182 178 179 189 182 179 168 169 181 216 246 238 194 180 191 189 176 184 202 193 229 242 231 232 220 226 223 232 230 236 276 277 198 178
167 163 158 162 163 162 168 176 181 180 181 187 189 187 177 173 172 177 195 213 225 190 197 202 201 196 199 191 185 225 224 227 224 226 226 229 214 181 221 240 294 264 179
143 153 154 157 162 166 172 177 181 181 181 186 188 189 174 176 190 197 205 207 208 201 218 208 214 223 212 197 178 217 234 230 232 225 216 219 204 184 184 196 266 276 209
100 127 146 162 169 172 176 179 186 183 179 184 190 196 189 191 202 208 210 201 194 202 216 216 230 236 225 217 197 203 228 231 235 225 214 206 183 194 191 184 223 242 211
98 108 124 155 166 171 177 181 188 184 181 181 191 197 197 193 193 191 197 182 168 172 198 228 242 247 230 247 249 234 232 232 232 235 230 219 187 194 193 197 207 199 175
84 93 106 135 161 169 178 184 186 187 184 182 194 199 196 191 178 176 184 169 154 191 218 218 250 276 229 295 308 287 272 250 238 227 225 229 185 182 181 193 194 183 175
89 105 117 111 152 187 188 191 189 190 187 187 190 187 188 185 177 180 192 182 181 205 230 229 220 233 246 249 299 307 291 278 254 232 226 217 202 197 195 193 184 181 190
72 76 165 163 267 257 204 187 189 194 193 184 179 174 180 185 193 196 193 192 198 197 217 240 228 214 212 227 258 275 282 273 268 247 233 249 224 194 195 206 209 220 226
32 17 4 8 311 303 349 166 167 178 190 178 174 175 185 187 193 198 206 213 214 205 210 223 228 212 214 227 252 257 257 269 274 266 235 222 219 206 196 204 215 223 224
30 7 2 339 314 319 341 49 168 165 187 182 180 187 194 194 197 208 216 219 211 215 223 217 224 220 221 225 241 235 245 255 265 274 271 240 213 242 220 225 232 236 244
37 14 358 353 343 342 349 247 241 194 200 196 206 205 202 201 204 215 220 219 212 219 224 228 233 220 213 219 226 218 235 250 259 266 271 269 246 243 217 219 245 245 245
40 23 10 18 2 350 339 293 270 254 221 203 205 204 209 211 210 214 216 216 216 221 227 228 230 216 214 221 224 211 217 247 254 255 256 259 254 244 230 222 234 248 255
40 41 31 20 14 5 336 301 291 303 323 171 230 230 225 233 226 199 216 227 224 228 234 233 237 236 224 212 217 210 224 256 261 261 253 260 260 248 239 235 250 263 267
43 44 42 21 14 12 351 321 321 322 281 243 243 247 256 247 232 216 210 215 223 230 241 242 239 249 252 259 234 235 247 263 260 268 275 280 282 266 243 244 247 247 239
29 33 34 18 360 347 336 311 313 310 270 258 259 259 256 295 297 279 250 236 243 241 241 249 252 252 262 280 328 283 269 273 278 281 283 282 272 257 250 250 241 231 228
15 18 18 3 337 333 331 340 340 327 298 274 268 271 270 261 290 312 308 274 265 238 232 242 247 244 246 244 257 263 260 261 263 285 280 275 275 261 262 248 235 226 230
1 2 3 351 334 333 335 345 355 339 295 284 279 271 252 250 249 254 320 329 289 275 241 235 241 256 242 243 252 267 274 274 273 267 260 256 257 248 252 255 252 246 242
Height
1518 1521 1523 1524 1526 1527 1529 1530 1531 1532 1533 1534 1535 1536 1537 1537 1537 1538 1538 1538 1539 1539 1539 1539 1540 1540 1540 1540 1540 1541 1541 1542 1543 1543 1544 1545 1545 1545 1545 1546 1546 1546 1546
1516 1519 1521 1523 1524 1526 1527 1529 1530 1531 1532 1533 1534 1536 1536 1537 1537 1537 1537 1538 1538 1538 1539 1539 1539 1539 1539 1540 1540 1541 1541 1542 1543 1543 1544 1544 1546 1545 1546 1546 1546 1546 1546
1513 1516 1518 1521 1523 1524 1526 1527 1529 1530 1531 1532 1534 1535 1536 1536 1536 1536 1537 1537 1538 1538 1538 1539 1539 1539 1539 1539 1540 1540 1541 1541 1542 1543 1544 1544 1544 1545 1546 1546 1546 1545 1546
1511 1513 1516 1518 1520 1522 1524 1526 1527 1529 1530 1531 1532 1533 1534 1535 1535 1536 1536 1536 1537 1537 1538 1538 1538 1538 1539 1539 1539 1540 1540 1541 1541 1542 1543 1543 1544 1544 1544 1545 1545 1545 1545
1508 1511 1513 1516 1518 1520 1522 1524 1526 1527 1528 1529 1531 1532 1533 1534 1534 1535 1535 1535 1535 1536 1536 1536 1537 1537 1537 1538 1538 1538 1539 1539 1540 1540 1541 1542 1542 1543 1543 1544 1544 1544 1544
1506 1508 1511 1514 1516 1518 1520 1522 1524 1525 1526 1528 1529 1530 1531 1532 1532 1533 1533 1534 1534 1534 1534 1534 1535 1535 1536 1536 1536 1537 1537 1538 1538 1539 1540 1540 1541 1541 1542 1542 1542 1543 1543
1503 1506 1509 1511 1513 1515 1517 1519 1522 1523 1525 1526 1527 1528 1529 1530 1531 1531 1532 1532 1532 1532 1533 1533 1533 1533 1534 1534 1534 1535 1535 1536 1536 1537 1538 1538 1539 1540 1540 1540 1540 1541 1541
1501 1503 1506 1508 1510 1513 1515 1517 1519 1521 1522 1524 1525 1526 1527 1528 1529 1529 1530 1530 1530 1530 1530 1531 1531 1532 1532 1532 1532 1533 1533 1534 1534 1535 1535 1536 1537 1537 1538 1538 1538 1539 1539
1498 1501 1503 1506 1508 1510 1512 1514 1516 1518 1520 1521 1523 1524 1525 1526 1527 1527 1528 1528 1528 1528 1528 1529 1529 1529 1529 1530 1530 1530 1531 1532 1532 1532 1533 1534 1534 1535 1535 1536 1536 1537 1537
1497 1500 1501 1504 1506 1508 1510 1512 1514 1516 1517 1519 1520 1522 1523 1524 1524 1525 1525 1525 1525 1526 1526 1526 1526 1527 1527 1527 1527 1528 1528 1529 1529 1530 1531 1531 1531 1532 1532 1533 1533 1534 1535
1495 1497 1499 1502 1504 1506 1508 1510 1512 1513 1515 1516 1518 1519 1520 1521 1522 1523 1523 1523 1523 1523 1524 1524 1524 1525 1525 1525 1525 1525 1525 1526 1526 1527 1528 1528 1529 1529 1529 1529 1530 1531 1531
1494 1495 1497 1499 1502 1504 1506 1508 1509 1510 1512 1514 1515 1517 1518 1519 1519 1520 1520 1520 1521 1521 1521 1522 1522 1522 1522 1522 1522 1522 1522 1523 1523 1524 1524 1525 1526 1526 1526 1527 1527 1527 1528
1493 1494 1495 1497 1499 1501 1503 1505 1507 1508 1509 1511 1512 1514 1515 1515 1516 1517 1517 1518 1518 1518 1519 1519 1519 1519 1519 1519 1520 1520 1520 1520 1521 1521 1521 1522 1522 1523 1523 1523 1524 1525 1525
1493 1494 1494 1496 1497 1499 1501 1502 1504 1505 1506 1508 1509 1510 1511 1512 1513 1514 1515 1515 1515 1515 1515 1516 1516 1516 1516 1517 1517 1517 1517 1517 1518 1518 1518 1519 1519 1519 1520 1520 1521 1522 1522
1493 1494 1494 1495 1496 1497 1499 1500 1502 1503 1504 1505 1506 1507 1508 1509 1510 1511 1511 1512 1512 1513 1513 1513 1513 1513 1513 1513 1514 1514 1514 1514 1515 1515 1515 1516 1516 1516 1517 1517 1518 1518 1519
1493 1493 1494 1494 1495 1496 1497 1498 1499 1501 1501 1502 1503 1504 1505 1506 1507 1507 1508 1509 1509 1509 1510 1510 1510 1510 1510 1510 1511 1511 1511 1511 1511 1512 1512 1512 1512 1513 1513 1514 1514 1515 1516
1492 1492 1493 1493 1494 1495 1495 1496 1496 1498 1498 1499 1500 1501 1502 1502 1503 1504 1505 1505 1506 1506 1507 1507 1508 1507 1507 1507 1508 1508 1508 1508 1508 1508 1509 1509 1508 1509 1509 1510 1511 1511 1512
1491 1491 1492 1492 1492 1493 1493 1494 1494 1495 1496 1496 1497 1498 1498 1499 1500 1501 1501 1502 1503 1503 1504 1504 1504 1504 1504 1504 1504 1504 1504 1505 1505 1505 1506 1506 1505 1505 1506 1506 1507 1507 1508
1490 1490 1490 1490 1490 1490 1491 1492 1492 1492 1493 1493 1494 1494 1495 1495 1496 1497 1498 1499 1499 1500 1500 1500 1501 1501 1500 1501 1501 1501 1501 1501 1501 1502 1502 1502 1502 1501 1502 1502 1502 1503 1503
1488 1488 1488 1488 1488 1488 1489 1489 1489 1489 1490 1490 1491 1491 1491 1492 1492 1493 1494 1495 1496 1496 1496 1497 1497 1497 1497 1497 1497 1497 1497 1496 1497 1497 1497 1497 1498 1498 1497 1498 1498 1498 1498
1486 1487 1486 1486 1486 1486 1486 1486 1487 1487 1487 1488 1488 1488 1488 1488 1489 1489 1490 1491 1492 1492 1493 1493 1493 1493 1493 1493 1493 1493 1492 1492 1492 1492 1492 1493 1493 1493 1493 1493 1493 1493 1494
1485 1485 1485 1485 1485 1484 1484 1484 1484 1485 1485 1485 1485 1485 1485 1485 1486 1486 1486 1487 1488 1488 1489 1489 1489 1489 1489 1489 1489 1488 1488 1488 1488 1488 1488 1488 1489 1489 1489 1489 1489 1489 1490
1484 1484 1484 1483 1483 1483 1483 1482 1482 1482 1482 1482 1482 1482 1482 1482 1482 1482 1482 1483 1484 1484 1484 1485 1484 1484 1485 1485 1484 1484 1484 1484 1484 1483 1484 1484 1484 1484 1484 1484 1485 1485 1485
1483 1483 1482 1482 1482 1482 1481 1481 1480 1480 1479 1479 1479 1479 1479 1478 1478 1478 1478 1479 1479 1480 1480 1480 1480 1480 1480 1480 1480 1479 1479 1479 1479 1479 1479 1479 1480 1480 1480 1480 1480 1480 1480
1482 1482 1481 1481 1480 1480 1479 1478 1477 1477 1476 1476 1476 1476 1475 1475 1475 1475 1475 1475 1475 1476 1476 1476 1476 1476 1476 1476 1476 1475 1475 1475 1474 1474 1474 1474 1474 1474 1474 1474 1474 1474 1475
1481 1480 1480 1479 1478 1477 1476 1475 1474 1474 1473 1473 1472 1472 1472 1472 1472 1471 1471 1471 1472 1472 1472 1472 1472 1472 1472 1472 1471 1471 1471 1470 1470 1470 1469 1469 1470 1469 1469 1469 1469 1469 1469